(315129) = 2007 ED96

Discovered at Mount Lemmon on 2007-03-10 by Mt. Lemmon Survey.

Orbit

Orbit type: Main Belt

Note: WebGL enabled browser required.

epoch2024-03-31.0
epoch JD2460400.5
perihelion date2023-12-20.61625
perihelion JD2460299.11625
argument of perihelion (°)300.83704
ascending node (°)194.56566
inclination (°)4.18412
eccentricity0.1326207
perihelion distance (AU)2.8021829
Tisserand w.r.t. Jupiter3.2
ΔV w.r.t. Earth (km/sec)10.5
semimajor axis (AU)3.2306316
mean anomaly (°)17.20842
mean daily motion (°/day)0.16973550
aphelion distance (AU)3.659
period (years)5.81
P-vector [x]-0.71148355
P-vector [y]0.66706951
P-vector [z]0.22092857
Q-vector [x]-0.70246315
Q-vector [y]-0.66696512
Q-vector [z]-0.24840100
absolute magnitude16.24
phase slope0.15
uncertainty0
referenceMPEC 2024-E73
observations used259
oppositions13
arc length (days)7085
first opposition used2004
last opposition used2024
residual rms (arc-secs)0.74
perturbers coarse indicatorM-v
perturbers precise indicator003Ek
first observation date used2004-10-11.0
last observation date used2024-03-05.0
computer nameMPCLINUX
JD of orbit computation2456465.519626
perihelion JD uncertainty (days)1.7222E-04
argument of perihelion uncertainty (°)6.4138E-05
ascending node uncertainty (°)5.5645E-05
inclination uncertainty (°)7.6846E-06
eccentricity uncertainty 3.7354E-08
perihelion distance uncertainty (AU)1.3318E-07
Minimum Orbit Intersection Distances (in AU)
for orbit epoch: 2460400.5, reference: E2024-E73
Mercury2.46356
Venus2.08992
Earth1.81946
Mars1.15961
Jupiter1.40208
Saturn5.97482
Uranus15.5542
Neptune26.3665

Observations

256 total observations over interval: 2004 10 11.27532 – 2024 03 05.218939
These data are available for download (format description).

Date (UT) J2000 RA J2000 Dec Magn Location Ref
2004 10 11.27532 01 06 29.22 +06 59 45.6 20.8 V 691 – Steward Observatory, Kitt Peak-Spacewatch MPS 252661
2004 10 11.30262 01 06 28.02 +06 59 36.9 21.2 V 691 – Steward Observatory, Kitt Peak-Spacewatch MPS 252661
2004 10 11.33432 01 06 26.71 +06 59 25.5 20.5 V 691 – Steward Observatory, Kitt Peak-Spacewatch MPS 252661
2004 10 15.24447 01 03 39.91 +06 38 07.5 20.8 V 691 – Steward Observatory, Kitt Peak-Spacewatch MPS 252661
2004 10 15.27125 01 03 38.71 +06 37 58.9 20.6 V 691 – Steward Observatory, Kitt Peak-Spacewatch MPS 252661
2004 10 15.29834 01 03 37.52 +06 37 49.9 20.8 V 691 – Steward Observatory, Kitt Peak-Spacewatch MPS 252661
2007 03 10.45448 13 39 16.48 -10 31 17.6 20.2 V G96 – Mt. Lemmon Survey MPS 204724
2007 03 10.46218 13 39 16.34 -10 31 15.9 20.5 V G96 – Mt. Lemmon Survey MPS 204724
2007 03 10.46981 13 39 16.16 -10 31 14.8 21.2 V G96 – Mt. Lemmon Survey MPS 204724
2007 03 10.47765 13 39 16.02 -10 31 13.2 20.9 V G96 – Mt. Lemmon Survey MPS 204724
2007 03 15.41197 13 37 12.74 -10 13 42.0 21.1 V 691 – Steward Observatory, Kitt Peak-Spacewatch MPS 204724
2007 03 15.42966 13 37 12.25 -10 13 38.1 20.9 V 691 – Steward Observatory, Kitt Peak-Spacewatch MPS 204724
2007 03 15.44736 13 37 11.72 -10 13 33.8 21.3 V 691 – Steward Observatory, Kitt Peak-Spacewatch MPS 204725
2007 03 26.34911 13 31 11.94 -09 25 30.6 21.1 V 691 – Steward Observatory, Kitt Peak-Spacewatch MPS 252661
2007 03 26.36678 13 31 11.24 -09 25 25.4 21.0 V 691 – Steward Observatory, Kitt Peak-Spacewatch MPS 252661
2007 03 26.38444 13 31 10.56 -09 25 20.1 20.8 V 691 – Steward Observatory, Kitt Peak-Spacewatch MPS 252661
2007 04 07.35862 13 23 03.76 -08 22 26.5 19.9 V G96 – Mt. Lemmon Survey MPS 252661
2007 04 07.36365 13 23 03.58 -08 22 24.9 20.3 V G96 – Mt. Lemmon Survey MPS 252661
2007 04 07.36877 13 23 03.33 -08 22 23.3 20.1 V G96 – Mt. Lemmon Survey MPS 252661
2007 04 07.37374 13 23 03.12 -08 22 21.9 20.4 V G96 – Mt. Lemmon Survey MPS 252661
2007 04 18.28549 13 15 17.49 -07 22 19.9 20.5 V G96 – Mt. Lemmon Survey MPS 252661
2007 04 18.29324 13 15 17.13 -07 22 17.5 20.4 V G96 – Mt. Lemmon Survey MPS 252661
2007 04 18.30100 13 15 16.81 -07 22 14.8 20.4 V G96 – Mt. Lemmon Survey MPS 252661
2007 04 18.30887 13 15 16.45 -07 22 12.3 20.5 V G96 – Mt. Lemmon Survey MPS 252661
2007 05 09.23773 13 03 01.04 -05 44 25.6 20.8 V G96 – Mt. Lemmon Survey MPS 252661
2007 05 09.24272 13 03 00.90 -05 44 24.8 21.1 V G96 – Mt. Lemmon Survey MPS 252661
2007 05 09.24770 13 03 00.75 -05 44 23.7 20.8 V G96 – Mt. Lemmon Survey MPS 252661
2007 05 09.25274 13 03 00.64 -05 44 23.0 21.1 V G96 – Mt. Lemmon Survey MPS 252661
2009 08 01.37644 21 59 11.15 -07 34 26.5 21.3 V 691 – Steward Observatory, Kitt Peak-Spacewatch MPS 291507
2009 08 01.39407 21 59 10.46 -07 34 30.5 21.6 V 691 – Steward Observatory, Kitt Peak-Spacewatch MPS 291507
2009 08 01.41170 21 59 09.82 -07 34 33.5 21.6 V 691 – Steward Observatory, Kitt Peak-Spacewatch MPS 291507
2010 10 07.384034 01 58 41.593 +11 00 01.46 21.34 w F51 – Pan-STARRS 1, Haleakala MPS 365683
2010 10 07.399517 01 58 40.965 +10 59 57.08 21.34 w F51 – Pan-STARRS 1, Haleakala MPS 365683
2010 10 07.415120 01 58 40.339 +10 59 53.04 21.27 w F51 – Pan-STARRS 1, Haleakala MPS 365683
2010 10 08.555297 01 57 55.565 +10 54 29.64 21.38 g F51 – Pan-STARRS 1, Haleakala MPS 365683
2010 10 08.567086 01 57 55.043 +10 54 26.62 21.39 g F51 – Pan-STARRS 1, Haleakala MPS 365683
2010 10 08.580288 01 57 54.531 +10 54 22.68 21.32 r F51 – Pan-STARRS 1, Haleakala MPS 365683
2010 10 08.591475 01 57 54.093 +10 54 19.46 21.18 r F51 – Pan-STARRS 1, Haleakala MPS 365683
2010 10 12.477689 01 55 16.605 +10 35 26.03 21.34 w F51 – Pan-STARRS 1, Haleakala MPS 365683
2010 10 12.509211 01 55 15.242 +10 35 16.55 21.42 w F51 – Pan-STARRS 1, Haleakala MPS 365683
2010 10 12.524525 01 55 14.581 +10 35 12.17 21.32 w F51 – Pan-STARRS 1, Haleakala MPS 365683
2010 10 14.499422 01 53 51.699 +10 25 19.53 20.90 i F51 – Pan-STARRS 1, Haleakala MPS 365683
2010 10 14.511175 01 53 51.192 +10 25 15.96 20.81 i F51 – Pan-STARRS 1, Haleakala MPS 365683
2012 01 15.54242 07 54 16.511 +14 29 32.67 19.8 i F51 – Pan-STARRS 1, Haleakala MPS 407740
2012 01 15.55511 07 54 15.844 +14 29 34.82 19.9 i F51 – Pan-STARRS 1, Haleakala MPS 407740
2012 01 20.35899 07 50 16.51 +14 41 51.3 20.1 V G96 – Mt. Lemmon Survey MPS 408825
2012 01 20.36718 07 50 16.08 +14 41 52.6 19.9 V G96 – Mt. Lemmon Survey MPS 408825
2012 01 20.37529 07 50 15.64 +14 41 54.1 19.8 V G96 – Mt. Lemmon Survey MPS 408825
2012 01 20.38343 07 50 15.21 +14 41 55.3 19.9 V G96 – Mt. Lemmon Survey MPS 408825
2012 01 21.49990 07 49 19.802 +14 44 56.34 20.0 g F51 – Pan-STARRS 1, Haleakala MPS 408825
2012 01 21.52565 07 49 18.506 +14 45 00.82 20.1 r F51 – Pan-STARRS 1, Haleakala MPS 408825
2012 01 21.53721 07 49 17.909 +14 45 02.76 19.4 r F51 – Pan-STARRS 1, Haleakala MPS 408825
2013 04 10.42855 14 11 24.469 -11 39 44.44 20.6 w F51 – Pan-STARRS 1, Haleakala MPS 463981
2013 04 10.44223 14 11 23.884 -11 39 40.51 20.6 w F51 – Pan-STARRS 1, Haleakala MPS 463981
2013 04 10.45592 14 11 23.307 -11 39 36.40 20.6 w F51 – Pan-STARRS 1, Haleakala MPS 463981
2013 05 03.37917 13 55 02.643 -09 45 27.27 20.5 w F51 – Pan-STARRS 1, Haleakala MPS 466790
2013 05 03.39272 13 55 02.068 -09 45 23.42 20.6 w F51 – Pan-STARRS 1, Haleakala MPS 466790
2013 05 03.40630 13 55 01.492 -09 45 19.56 20.6 w F51 – Pan-STARRS 1, Haleakala MPS 466790
2013 05 16.24560 13 47 16.51 -08 51 36.6 20.5 V G96 – Mt. Lemmon Survey MPS 468603
2013 05 16.25257 13 47 16.26 -08 51 34.9 20.8 V G96 – Mt. Lemmon Survey MPS 468603
2013 05 16.25953 13 47 16.08 -08 51 33.0 20.8 V G96 – Mt. Lemmon Survey MPS 468603
2013 05 16.26647 13 47 15.82 -08 51 32.0 20.7 V G96 – Mt. Lemmon Survey MPS 468603
2015 08 20.32852 22 32 17.10 -05 08 01.9 20.9 V 691 – Steward Observatory, Kitt Peak-Spacewatch MPS 623149
2015 08 20.34739 22 32 16.32 -05 08 06.8 21.6 V 691 – Steward Observatory, Kitt Peak-Spacewatch MPS 623149
2015 08 20.36624 22 32 15.56 -05 08 11.8 20.8 V 691 – Steward Observatory, Kitt Peak-Spacewatch MPS 623149
2015 09 09.31397 22 18 43.791 -06 41 05.29 21.4 w F51 – Pan-STARRS 1, Haleakala MPS 626506
2015 09 09.32624 22 18 43.287 -06 41 08.55 21.3 w F51 – Pan-STARRS 1, Haleakala MPS 626506
2015 09 09.33834 22 18 42.796 -06 41 12.22 21.3 w F51 – Pan-STARRS 1, Haleakala MPS 626506
2015 09 09.35040 22 18 42.310 -06 41 15.38 21.2 w F51 – Pan-STARRS 1, Haleakala MPS 626506
2015 09 12.35411 22 16 46.493 -06 55 19.34 21.5 w F51 – Pan-STARRS 1, Haleakala MPS 628440
2015 09 12.36597 22 16 46.031 -06 55 22.68 21.6 w F51 – Pan-STARRS 1, Haleakala MPS 628440
2015 09 12.37785 22 16 45.571 -06 55 26.10 21.3 w F51 – Pan-STARRS 1, Haleakala MPS 628440
2016 10 12.39351 02 54 06.70 +14 23 02.6 20.5 V G96 – Mt. Lemmon Survey MPS 735957
2016 10 12.40082 02 54 06.47 +14 23 01.4 21.1 V G96 – Mt. Lemmon Survey MPS 735957
2016 10 12.40832 02 54 06.16 +14 22 59.2 21.4 V G96 – Mt. Lemmon Survey MPS 735957
2016 10 12.41575 02 54 05.93 +14 22 57.4 20.9 V G96 – Mt. Lemmon Survey MPS 735957
2016 10 21.39375 02 48 25.88 +13 45 39.9 20.6 V G96 – Mt. Lemmon Survey MPS 739392
2016 10 21.40635 02 48 25.26 +13 45 36.4 20.7 V G96 – Mt. Lemmon Survey MPS 739392
2016 10 21.41202 02 48 25.05 +13 45 34.8 20.1 V G96 – Mt. Lemmon Survey MPS 739392
2016 10 21.41632 02 48 24.89 +13 45 33.9 20.4 V G96 – Mt. Lemmon Survey MPS 739392
2016 10 22.18303 02 47 53.30 +13 42 10.2 21.1 G G45 – Space Surveillance Telescope, Atom Site MPS 1609444
2016 10 22.24224 02 47 50.73 +13 41 55.3 21.3 G G45 – Space Surveillance Telescope, Atom Site MPS 1609444
2016 10 22.29365 02 47 48.48 +13 41 41.8 21.8 G G45 – Space Surveillance Telescope, Atom Site MPS 1609444
2016 10 22.34240 02 47 46.36 +13 41 28.6 21.2 G G45 – Space Surveillance Telescope, Atom Site MPS 1609444
2016 10 27.37985 02 44 08.09 +13 18 37.7 20.0 V G96 – Mt. Lemmon Survey MPS 739392
2016 10 27.38418 02 44 07.92 +13 18 37.6 20.5 V G96 – Mt. Lemmon Survey MPS 739392
2016 10 27.38847 02 44 07.70 +13 18 36.2 20.3 V G96 – Mt. Lemmon Survey MPS 739392
2016 10 27.39281 02 44 07.54 +13 18 34.8 19.8 V G96 – Mt. Lemmon Survey MPS 739392
2016 11 02.25764 02 39 41.59 +12 51 17.0 20.1 V G96 – Mt. Lemmon Survey MPS 741837
